1276128033799,82.7845
1276128093799,82.3110
1276128153799,81.7570
1276128213799,82.0388
1276128273799,82.6329
1276128333799,82.1660
1276128393799,82.6125
1276128453799,82.4734
1276128513799,82.0021
1276128573799,82.3365
1276128633799,82.5058
1276128693799,82.6845
1276128753799,82.0732
1276128813799,82.4074
1276128873799,82.2231
1276128933799,82.5423
1276128993799,82.0768
1276129053799,82.0127
1276129113799,81.9688
1276129173799,82.4747
1276129233799,81.8455
1276129293799,82.3561
1276129353799,82.1298
1276129413799,81.9964
1276129473799,82.3357
1276129533799,82.2034
1276129593799,82.1026
1276129653799,82.1056
1276129713799,82.5681
1276129773799,82.1311
1276129833799,82.1126
1276129893799,81.8768
1276129953799,82.1148
1276130013799,82.0296
1276130073799,82.2937
1276130133799,81.7904
1276130193799,82.2309
1276130253799,82.3081
1276130313799,82.4663
1276130373799,82.2270
1276130433799,81.9555
1276130493799,81.8856
1276130553799,82.2191
1276130613799,81.9262
1276130673799,82.2472
1276130733799,82.1262
1276130793799,82.5314
1276130853799,81.8635
1276130913799,81.9541
1276130973799,82.0113
1276131033799,82.0838
1276131093799,82.1361
1276131153799,82.5310
1276131213799,82.0197
1276131273799,82.0373
1276131333799,81.9043
1276131393799,82.3610
1276131453799,82.2582
1276131513799,82.4993
1276131573799,82.0783
1276131633809,82.4846
1276131693809,82.0991
1276131753809,81.9765
1276131813809,81.7864
1276131873809,82.4304
1276131933809,82.2597
1276131993809,82.2691
1276132053809,82.1017
1276132113809,82.1794
1276132173809,82.1475
1276132233809,82.1526
1276132293809,82.3135
1276132353809,82.3204
1276132413809,82.4331
1276132473809,82.0603
1276132533809,82.2347
1276132593809,82.2986
1276132653809,82.2730
1276132713809,82.3935
1276132773809,82.3333
1276132833809,82.2967
1276132893809,81.8790
1276132953809,82.0199
1276133013809,82.0628
1276133073809,82.0207
1276133133809,82.6578
1276133193809,82.4153
1276133253809,82.5576
1276133313809,82.6755
1276133373809,82.1523
1276133433809,82.1730
1276133493809,82.4514
1276133553809,82.5774
1276133613809,81.8377
1276133673809,82.4818
1276133733809,82.4206
1276133793809,82.9345
1276133853809,82.5465
1276133913809,82.7544
1276133973809,82.4761
1276134033809,82.4364
1276134093809,82.2148
1276134153809,82.2870
1276134213809,82.2676
1276134273809,82.0852
1276134333809,82.7179
1276134393809,82.0875
1276134453809,81.9208
1276134513809,81.9589
1276134573809,82.3215
1276134633809,82.5071
1276134693809,81.8566
1276134753809,82.7447
1276134813809,81.8343
1276134873809,82.5907
1276134933809,82.0341
1276134993809,82.5884
1276135053809,82.1173
1276135113809,82.3186
1276135173809,82.5721
1276135233818,82.4680
1276135293818,82.1807
1276135353818,82.4559
1276135413818,82.7064
1276135473818,82.3770
1276135533818,82.1980
1276135593818,82.1332
1276135653818,82.4954
1276135713818,82.2075
1276135773818,82.2192
1276135833818,82.2350
1276135893818,82.5552
1276135953818,82.3002
1276136013818,82.6764
1276136073818,82.4026
1276136133818,82.5846
1276136193818,81.9786
1276136253818,82.0325
1276136313818,82.7161
1276136373818,82.3601
1276136433818,82.7472
1276136493818,82.3520
1276136553818,82.8207
1276136613818,82.8447
1276136673818,82.2826
1276136733818,82.0800
1276136793818,82.5577
1276136853818,82.8384
1276136913818,82.6551
1276136973818,82.1642
1276137033818,82.2741
1276137093818,82.5114
1276137153818,82.0634
1276137213818,82.4609
1276137273818,82.1051
1276137333818,82.0457
1276137393818,82.3507
1276137453818,82.6697
1276137513818,82.4057
1276137573818,82.8718
1276137633818,82.0700
1276137693818,82.1722
1276137753818,82.0977
1276137813818,82.3833
1276137873818,82.5411
1276137933818,82.3765
1276137993818,82.5148
1276138053818,82.1485
1276138113818,82.6721
1276138173818,82.4526
1276138233818,81.9307
1276138293818,81.8539
1276138353818,82.2451
1276138413818,82.0863
1276138473818,82.4686
1276138533818,82.2900
1276138593818,82.3102
1276138653818,82.0706
1276138713818,82.0928
1276138773818,82.3977
1276138833828,82.2810
1276138893828,82.1071
1276138953828,81.9793
1276139013828,82.6823
1276139073828,82.6274
1276139133828,82.1738
1276139193828,82.2859
1276139253828,82.0567
1276139313828,81.7640
1276139373828,82.3769
1276139433828,82.2940
1276139493828,82.3403
1276139553828,82.3344
1276139613828,82.0471
1276139673828,81.9043
1276139733828,81.8054
1276139793828,82.1716
1276139853828,82.2428
1276139913828,82.0795
1276139973828,82.0707
1276140033828,82.6686
1276140093828,82.5634
1276140153828,81.8998
1276140213828,82.1695
1276140273828,82.4533
1276140333828,82.1075
1276140393828,82.1814
1276140453828,82.3977
1276140513828,82.0461
1276140573828,82.1482
1276140633828,82.0815
1276140693828,82.3515
1276140753828,82.2253
1276140813828,82.7344
1276140873828,81.8515
1276140933828,82.3524
1276140993828,82.2120
1276141053828,82.1605
1276141113828,82.6612
1276141173828,81.8709
1276141233828,82.3823
1276141293828,82.0217
1276141353828,82.2810
1276141413828,82.4617
1276141473828,82.3669
1276141533828,82.2734
1276141593828,82.4784
1276141653828,82.7017
1276141713828,82.0509
1276141773828,82.6955
1276141833828,82.4190
1276141893828,82.4289
1276141953828,83.1159
1276142013828,82.7664
1276142073828,82.6218
1276142133828,82.2435
1276142193828,82.4018
1276142253828,82.2371
1276142313828,82.1092
1276142373828,82.5462
1276142433836,82.7632
1276142493836,82.5955
1276142553836,82.3760
1276142613836,82.8169
1276142673836,83.0233
1276142733836,82.5198
1276142793836,82.4957
1276142853836,83.3019
1276142913836,82.4349
1276142973836,82.6651
1276143033836,82.6153
1276143093836,82.8278
1276143153836,82.6105
1276143213836,82.0779
1276143273836,82.9173
1276143333836,82.5337
1276143393836,82.5358
1276143453836,83.2700
1276143513836,82.9208
1276143573836,82.7653
1276143633836,82.3626
1276143693836,82.3315
1276143753836,83.0068
1276143813836,82.6545
1276143873836,83.0017
1276143933836,82.8983
1276143993836,82.5623
1276144053836,82.6950
1276144113836,82.6866
1276144173836,82.8388
1276144233836,83.1070
1276144293836,82.8055
1276144353836,82.8570
1276144413836,82.5521
1276144473836,82.3458
1276144533836,82.8324
1276144593836,82.9139
1276144653836,83.1307
1276144713836,82.6693
1276144773836,83.0010
1276144833836,82.6165
1276144893836,83.4262
1276144953836,83.6104
1276145013836,82.5672
1276145073836,82.9138
1276145133836,83.1903
1276145193836,82.6535
1276145253836,83.0247
1276145313836,83.1238
1276145373836,83.0878
1276145433836,82.7083
1276145493836,82.9208
1276145553836,82.9406
1276145613836,83.4294
1276145673836,83.2613
1276145733836,83.2245
1276145793836,82.9404
1276145853836,82.9890
1276145913836,83.2621
1276145973836,82.9576
1276146033845,82.6286
1276146093845,82.6704
1276146153845,83.2297
1276146213845,83.3037
1276146273845,83.0080
1276146333845,82.9681
1276146393845,82.9900
1276146453845,82.9760
1276146513845,83.0289
1276146573845,82.9735
1276146633845,83.2018
1276146693845,83.0001
1276146753845,83.1118
1276146813845,82.8776
1276146873845,82.5370
1276146933845,83.1691
1276146993845,83.2656
1276147053845,82.9872
1276147113845,83.2204
1276147173845,83.4021
1276147233845,83.1413
1276147293845,82.8396
1276147353845,82.9788
1276147413845,83.1090
1276147473845,82.8261
1276147533845,82.7521
1276147593845,83.2653
1276147653845,83.1015
1276147713845,83.1884
1276147773845,83.5740
1276147833845,83.4959
1276147893845,82.8703
1276147953845,83.2230
1276148013845,82.9288
1276148073845,83.0627
1276148133845,83.4999
1276148193845,83.2304
1276148253845,83.1598
1276148313845,83.1310
1276148373845,82.9386
1276148433845,82.6936
1276148493845,83.2513
1276148553845,83.1399
1276148613845,83.1812
1276148673845,83.2808
1276148733845,83.2099
1276148793845,83.2847
1276148853845,82.9467
1276148913845,82.8513
1276148973845,82.8891
1276149033845,83.4710
1276149093845,83.4766
1276149153845,83.2139
1276149213845,83.1266
1276149273845,82.6816
1276149333845,82.9561
1276149393845,83.0629
1276149453845,83.2438
1276149513845,83.2582
1276149573845,82.7147
1276149633854,82.8978
1276149693854,83.1084
1276149753854,83.3576
1276149813854,83.2237
1276149873854,83.4271
1276149933854,82.9815
1276149993854,83.0951
1276150053854,83.0539
1276150113854,83.2535
1276150173854,83.0433
1276150233854,83.4393
1276150293854,83.1795
1276150353854,83.1702
1276150413854,82.9118
1276150473854,82.9332
1276150533854,83.0493
1276150593854,82.7796
1276150653854,82.8984
1276150713854,83.1954
1276150773854,83.0065
1276150833854,82.9610
1276150893854,83.2359
1276150953854,83.0658
1276151013854,83.4070
1276151073854,82.3747
1276151133854,83.2617
1276151193854,83.0659
1276151253854,82.8815
1276151313854,82.8794
1276151373854,83.1767
1276151433854,83.5709
1276151493854,82.4771
1276151553854,82.9435
1276151613854,83.0579
1276151673854,82.7345
1276151733854,82.5305
1276151793854,83.2883
1276151853854,83.1441
1276151913854,82.7138
1276151973854,82.7078
1276152033854,82.6987
1276152093854,82.5949
1276152153854,83.0260
1276152213854,82.8453
1276152273854,82.3704
1276152333854,82.9180
1276152393854,82.6036
1276152453854,82.4413
1276152513854,82.4050
1276152573854,82.5913
1276152633854,82.6233
1276152693854,82.8680
1276152753854,82.8062
1276152813854,83.0685
1276152873854,82.2921
1276152933854,82.6752
1276152993854,82.6182
1276153053854,83.0828
1276153113854,83.0875
1276153173854,82.7056
1276153233862,83.0680
1276153293862,82.5470
1276153353862,82.9942
1276153413862,82.4517
1276153473862,82.2788
1276153533862,82.6624
1276153593862,82.7011
1276153653862,82.7816
1276153713862,82.4213
1276153773862,82.7004
1276153833862,82.8290
1276153893862,82.3820
1276153953862,82.5513
1276154013862,82.6123
1276154073862,82.8685
1276154133862,82.7679
1276154193862,82.7934
1276154253862,82.4515
1276154313862,83.0113
1276154373862,82.9845
1276154433862,82.3392
1276154493862,82.8140
1276154553862,82.6368
1276154613862,82.6957
1276154673862,82.0993
1276154733862,83.0501
1276154793862,82.4694
1276154853862,83.1081
1276154913862,82.8637
1276154973862,83.1131
1276155033862,82.9670
1276155093862,83.1924
1276155153862,83.2318
1276155213862,83.0415
1276155273862,82.9271
1276155333862,83.0012
1276155393862,83.2584
1276155453862,83.3484
1276155513862,82.6997
1276155573862,82.8872
1276155633862,82.7168
1276155693862,83.1086
1276155753862,83.0952
1276155813862,82.8349
1276155873862,82.9902
1276155933862,83.1517
1276155993862,82.6357
1276156053862,82.6197
1276156113862,82.7277
1276156173862,83.1428
1276156233862,82.6094
1276156293862,82.4659
1276156353862,83.2354
1276156413862,83.6127
1276156473862,82.5145
1276156533862,83.0362
1276156593862,82.9873
1276156653862,82.8053
1276156713862,82.7350
1276156773862,82.8092
1276156833870,83.2507
1276156893870,82.6038
1276156953870,82.4897
1276157013870,82.7028
1276157073870,82.8055
1276157133870,82.7439
1276157193870,83.4464
1276157253870,82.2891
1276157313871,82.4866
1276157373871,82.6361
1276157433871,82.5485
1276157493871,83.1471
1276157553870,83.0360
1276157613870,82.8697
1276157673870,83.0925
1276157733870,83.0913
1276157793870,82.8429
1276157853870,83.3310
1276157913870,82.8708
1276157973870,82.8548
1276158033870,82.8004
1276158093870,83.0731
1276158153870,82.7137
1276158213870,83.1540
1276158273870,83.2338
1276158333870,83.0820
1276158393870,83.0273
1276158453870,83.2525
1276158513870,82.9134
1276158573870,82.5570
1276158633871,83.2094
1276158693871,82.9214
1276158753871,82.8765
1276158813871,82.9547
1276158873871,82.9947
1276158933870,83.2040
1276158993870,83.0841
1276159053870,83.6373
1276159113870,82.8657
1276159173870,82.6173
1276159233870,82.9553
1276159293870,82.9822
1276159353870,82.9206
1276159413870,83.3377
1276159473870,83.2394
1276159533870,82.8815
1276159593870,82.8344
1276159653870,82.6456
1276159713870,83.3346
1276159773870,83.1864
1276159833870,83.0078
1276159893870,82.8449
1276159953870,82.8284
1276160013871,82.8919
1276160073871,82.9466
1276160133871,83.5126
1276160193871,83.1359
1276160253870,82.9888
1276160313870,83.0184
1276160373870,83.1442
1276160433879,83.2695
1276160493879,82.7893
1276160553879,82.7861
1276160613879,83.2496
1276160673879,83.1466
1276160733879,83.2883
1276160793879,83.6545
1276160853879,83.4229
1276160913879,83.1870
1276160973879,83.4207
1276161033879,83.2615
1276161093879,82.7239
1276161153879,82.9145
1276161213879,83.0223
1276161273879,83.3304
1276161333879,83.5079
1276161393879,83.2969
1276161453879,83.3564
1276161513879,82.9203
1276161573879,83.2161
1276161633879,83.2453
1276161693879,83.5043
1276161753879,82.9806
1276161813879,83.4300
1276161873879,83.3528
1276161933879,82.8775
1276161993879,83.2197
1276162053879,83.5950
1276162113879,83.4198
1276162173879,83.4401
1276162233879,83.6807
1276162293879,83.4229
1276162353879,83.1913
1276162413879,83.0481
1276162473879,83.6316
1276162533879,83.1913
1276162593879,83.2269
1276162653879,83.2696
1276162713879,83.2063
1276162773879,83.3776
1276162833879,83.1722
1276162893879,83.4584
1276162953879,83.6827
1276163013879,83.2780
1276163073879,83.4728
1276163133879,83.5844
1276163193879,83.2261
1276163253879,83.5789
1276163313879,83.2141
1276163373879,83.3282
1276163433879,83.2016
1276163493879,83.4777
1276163553879,83.2070
1276163613879,83.3664
1276163673879,83.6430
1276163733879,83.7101
1276163793879,82.8821
1276163853879,83.3400
1276163913879,83.0805
1276163973879,82.9737
1276164033887,83.0010
1276164093887,83.0929
1276164153887,83.1263
1276164213887,83.7068
1276164273887,83.3322
1276164333887,83.4286
1276164393887,83.1708
1276164453887,83.1875
1276164513887,83.0858
1276164573887,82.9540
1276164633887,82.6757
1276164693887,83.3368
1276164753887,83.5166
1276164813887,82.9337
1276164873887,83.3794
1276164933887,83.1189
1276164993887,83.3419
1276165053887,83.5358
1276165113887,82.8984
1276165173887,83.4291
1276165233887,83.2172
1276165293887,83.4102
1276165353887,83.3980
1276165413887,83.2546
1276165473887,83.2835
1276165533887,83.7208
1276165593887,83.0486
1276165653887,83.5587
1276165713887,83.5499
1276165773887,83.3531
1276165833887,83.7457
1276165893887,83.5690
1276165953887,83.4734
1276166013887,83.3216
1276166073887,83.6196
1276166133887,83.5657
1276166193887,83.2228
1276166253887,83.8820
1276166313887,83.1221
1276166373887,83.8789
1276166433887,83.2123
1276166493887,83.2414
1276166553887,83.4401
1276166613887,83.5617
1276166673887,83.5266
1276166733887,83.9695
1276166793887,83.1718
1276166853887,83.5847
1276166913887,83.5247
1276166973887,83.5788
1276167033887,83.7476
1276167093887,83.6483
1276167153887,84.3141
1276167213887,83.8039
1276167273887,83.4480
1276167333887,83.5746
1276167393887,83.3693
1276167453887,83.5620
1276167513887,83.5976
1276167573887,83.6068
1276167633896,83.9612
1276167693896,83.9519
1276167753896,83.3220
1276167813896,83.8217
1276167873896,83.4345
1276167933896,83.8533
1276167993896,83.3778
1276168053896,83.3098
1276168113896,83.4062
1276168173896,83.4730
1276168233896,83.6585
1276168293896,84.0765
1276168353896,83.7694
1276168413896,83.8295
1276168473896,83.8265
1276168533896,84.1147
1276168593896,83.4432
1276168653896,83.7007
1276168713896,83.6789
1276168773896,83.5792
1276168833896,83.5917
1276168893896,84.0048
1276168953896,83.4456
1276169013896,83.7468
1276169073896,83.4823
1276169133896,83.6687
1276169193896,83.7949
1276169253896,83.8099
1276169313896,84.1450
1276169373896,83.7878
1276169433896,83.7912
1276169493896,83.2016
1276169553896,83.5838
1276169613896,83.3094
1276169673896,83.2354
1276169733896,83.8133
1276169793896,83.8583
1276169853896,84.4956
1276169913896,83.6689
1276169973896,83.6204
1276170033896,84.1210
1276170093896,83.7274
1276170153896,83.7138
1276170213896,83.7374
1276170273896,84.0415
1276170333896,83.4373
1276170393896,83.6516
1276170453896,83.3928
1276170513896,84.0427
1276170573896,83.7809
1276170633896,83.2462
1276170693896,83.5846
1276170753896,84.1418
1276170813896,83.8009
1276170873896,83.5266
1276170933896,83.9181
1276170993896,83.6829
1276171053896,83.7212
1276171113896,83.9253
1276171173896,83.9395
1276171233904,83.5064
1276171293904,83.8870
1276171353904,83.7273
1276171413904,83.7232
1276171473904,83.7433
1276171533904,84.0253
1276171593904,82.9753
1276171653904,83.6383
1276171713904,84.1037
1276171773904,83.4842
1276171833904,83.8516
1276171893904,83.7455
1276171953904,83.7559
1276172013904,83.9957
1276172073904,83.7434
1276172133904,83.8506
1276172193904,83.7024
1276172253904,84.1570
1276172313904,83.6443
1276172373904,83.9428
1276172433904,84.0482
1276172493904,84.1707
1276172553904,83.4476
1276172613904,83.3715
1276172673904,83.5900
1276172733904,83.8452
1276172793904,83.3890
1276172853904,83.9896
1276172913904,83.3475
1276172973904,83.4732
1276173033904,83.5759
1276173093904,83.8340
1276173153904,83.7641
1276173213904,83.5623
1276173273904,84.0931
1276173333904,83.9123
1276173393904,83.7602
1276173453904,83.8617
1276173513904,83.3533
1276173573904,83.3716
1276173633904,83.6821
1276173693904,83.5757
1276173753904,83.3602
1276173813904,83.7923
1276173873904,83.9208
1276173933904,83.5474
1276173993904,83.5699
1276174053904,83.5651
1276174113904,83.8158
1276174173904,83.7947
1276174233904,84.2957
1276174293904,83.7133
1276174353904,83.8048
1276174413904,83.9689
1276174473904,83.9743
1276174533904,83.4614
1276174593904,84.2411
1276174653904,83.5232
1276174713904,83.8615
1276174773904,83.7194
1276174833912,83.8068
1276174893912,83.8079
1276174953912,83.8759
1276175013912,84.2452
1276175073912,84.1253
1276175133912,83.8682
1276175193912,84.4071
1276175253912,84.1357
1276175313912,83.9324
1276175373912,84.1336
1276175433912,84.2487
1276175493912,83.6693
1276175553912,83.8735
1276175613912,84.2918
1276175673912,83.7390
1276175733912,83.9693
1276175793912,83.9230
1276175853912,83.5707
1276175913912,83.8323
1276175973912,83.7206
1276176033912,84.1024
1276176093912,83.9111
1276176153912,83.7547
1276176213912,84.0689
1276176273912,83.8254
1276176333912,83.6812
1276176393912,83.3181
1276176453912,83.9127
1276176513912,83.7215
1276176573912,83.3795
1276176633912,83.7554
1276176693912,83.4021
1276176753912,83.3684
1276176813912,83.7871
1276176873912,83.5408
1276176933912,83.6975
1276176993912,83.6143
1276177053912,83.6222
1276177113912,83.8759
1276177173912,83.9982
1276177233912,83.0702
1276177293912,83.5182
1276177353912,83.3928
1276177413912,83.2691
1276177473912,83.5710
1276177533912,83.4853
1276177593912,83.9657
1276177653912,83.4442
1276177713912,83.4984
1276177773912,83.5633
1276177833912,83.4708
1276177893912,83.4749
1276177953912,83.5466
1276178013912,83.1790
1276178073912,83.6053
1276178133912,84.1101
1276178193912,83.2919
1276178253912,84.0627
1276178313912,83.7447
1276178373912,83.8504
1276178433921,83.9782
1276178493921,83.5103
1276178553921,83.8179
1276178613921,83.6011
1276178673920,83.7907
1276178733920,83.6832
1276178793921,83.8241
1276178853921,83.8188
1276178913921,84.2177
1276178973921,83.9035
1276179033921,83.3008
1276179093921,83.9166
1276179153921,83.6586
1276179213921,83.9134
1276179273921,83.9824
1276179333921,83.7004
1276179393921,83.5112
1276179453921,83.3060
1276179513921,83.7217
1276179573921,83.6511
1276179633921,83.1443
1276179693921,83.7827
1276179753921,83.8077
1276179813921,83.9841
1276179873921,83.3866
1276179933921,83.5771
1276179993920,83.2189
1276180053920,83.7722
1276180113921,83.3642
1276180173921,83.3676
1276180233921,83.7313
1276180293921,83.3179
1276180353921,83.0318
1276180413921,83.3912
1276180473921,83.5835
1276180533921,83.8411
1276180593921,83.2262
1276180653921,83.3019
1276180713921,83.3170
1276180773921,83.5954
1276180833921,83.3868
1276180893921,83.6251
1276180953921,83.5691
1276181013921,83.8538
1276181073921,83.5985
1276181133921,83.0254
1276181193921,83.5833
1276181253921,83.9050
1276181313921,83.4989
1276181373920,83.4495
1276181433920,83.2671
1276181493921,83.4227
1276181553921,83.4149
1276181613921,83.3012
1276181673921,83.5235
1276181733921,83.2476
1276181793921,83.3976
1276181853921,83.4852
1276181913921,82.9327
1276181973921,83.2233
1276182033929,83.5538
1276182093929,83.4202
1276182153929,83.1476
1276182213929,83.4692
1276182273929,83.6112
1276182333929,83.8685
1276182393929,83.2243
1276182453929,83.4569
1276182513929,83.4018
1276182573929,83.6202
1276182633929,83.2265
1276182693929,83.5660
1276182753929,82.9379
1276182813929,83.5102
1276182873929,83.6984
1276182933929,83.5886
1276182993929,83.5003
1276183053929,83.1112
1276183113929,83.3734
1276183173929,83.1563
1276183233929,83.3631
1276183293929,83.4482
1276183353929,83.7904
1276183413929,83.5696
1276183473929,83.1755
1276183533929,83.1017
1276183593929,83.8842
1276183653929,83.3320
1276183713929,83.0104
1276183773929,83.4622
1276183833929,83.4362
1276183893929,83.4532
1276183953929,83.2328
1276184013929,83.2261
1276184073929,83.6104
1276184133929,83.6012
1276184193929,83.6076
1276184253929,83.4582
1276184313929,83.6198
1276184373929,83.5561
1276184433929,83.4655
1276184493929,83.6573
1276184553929,83.8231
1276184613929,83.2640
1276184673929,83.2476
1276184733929,83.3907
1276184793929,83.1731
1276184853929,83.2877
1276184913929,83.7264
1276184973929,82.8882
1276185033929,83.3372
1276185093929,83.0406
1276185153929,83.0127
1276185213929,83.1088
1276185273929,82.8819
1276185333929,83.2749
1276185393929,83.7816
1276185453929,83.4788
1276185513929,83.7384
1276185573929,83.2367
1276185633937,83.6186
1276185693937,83.7007
1276185753937,83.2098
1276185813937,83.6776
1276185873937,83.3205
1276185933937,83.4439
1276185993937,83.6261
1276186053937,83.9352
1276186113937,83.2454
1276186173937,83.4072
1276186233938,83.8554
1276186293938,83.4642
1276186353938,83.5226
1276186413937,83.5244
1276186473937,83.7334
1276186533937,83.6561
1276186593937,83.6362
1276186653937,83.6356
1276186713937,84.0766
1276186773937,82.9917
1276186833937,83.2173
1276186893937,83.6444
1276186953937,83.5673
1276187013937,83.7743
1276187073937,83.3157
1276187133937,84.1468
1276187193937,84.1958
1276187253937,84.0629
1276187313937,84.1549
1276187373937,83.5187
1276187433937,83.7671
1276187493937,83.7418
1276187553938,83.8481
1276187613938,83.8179
1276187673938,83.9197
1276187733937,83.7937
1276187793937,83.8402
1276187853937,83.7741
1276187913937,83.5711
1276187973937,83.7388
1276188033937,83.6698
1276188093937,83.8318
1276188153937,83.8121
1276188213937,83.9216
1276188273937,83.9555
1276188333937,83.7290
1276188393937,83.9141
1276188453937,84.0304
1276188513937,83.7254
1276188573937,83.4097
1276188633937,83.8643
1276188693937,83.7228
1276188753937,83.9172
1276188813937,83.8020
1276188873937,83.7283
1276188933938,83.3961
1276188993938,83.6302
1276189053938,83.8334
1276189113937,83.8828
1276189173937,83.5352
1276189233946,83.2039
1276189293946,83.4579
1276189353946,83.3244
1276189413946,83.7596
1276189473946,83.5874
1276189533946,83.2912
1276189593946,84.0515
1276189653946,83.4638
1276189713946,83.4773
1276189773946,83.9561
1276189833946,83.7459
1276189893946,83.7728
1276189953946,83.4025
1276190013946,84.0042
1276190073946,83.6992
1276190133946,83.3029
1276190193946,84.1083
1276190253946,83.7876
1276190313946,84.3867
1276190373946,83.7932
1276190433946,83.4980
1276190493946,83.5140
1276190553946,83.7801
1276190613946,83.7872
1276190673946,83.7211
1276190733946,83.9276
1276190793946,83.3239
1276190853946,83.8787
1276190913946,84.2215
1276190973946,83.7074
1276191033946,83.6324
1276191093946,83.3854
1276191153946,83.9773
1276191213946,83.5598
1276191273946,83.4593
1276191333946,83.5289
1276191393946,83.2524
1276191453946,83.7641
1276191513946,83.5603
1276191573946,83.8277
1276191633946,83.0672
1276191693946,83.5310
1276191753946,83.6175
1276191813946,83.9359
1276191873946,83.4671
1276191933946,83.2488
1276191993946,83.6157
1276192053946,83.5678
1276192113946,83.7360
1276192173946,83.9174
1276192233946,83.8707
1276192293946,83.5150
1276192353946,83.5222
1276192413946,83.6821
1276192473946,83.7899
1276192533946,83.4002
1276192593946,83.6874
1276192653946,83.8668
1276192713946,83.2290
1276192773946,83.4940
1276192833955,83.3663
1276192893955,83.5563
1276192953955,83.6955
1276193013955,83.7345
1276193073955,83.7915
1276193133955,83.5397
1276193193955,83.3424
1276193253955,83.7239
1276193313955,83.7369
1276193373955,83.6994